Location: Hawks Ness
(60.2333°N, 1.1667°W)
Time: 19:11:46
(UTC+00:00)

ATLAS 5 CENTAUR R/B - Pass Details

Date: 22 October 2019
Orbit: 288 x 14350 km, 60.8° (Epoch: 12 November)

Event Time Altitude Azimuth Distance (km) Brightness Sun altitude
Exits shadow 04:59:10 22° 285° (WNW) 1,859 3.9 -15.7°
Maximum altitude 05:02:48 71° 205° (SSW) 1,486 3.8 -15.2°
Drops below altitude 10° 05:22:13 10° 128° (SE) 8,408 8.6 -12.8°
Sets 05:33:54 0° 129° (SE) 11,896 9.5 -11.4°
